Weather History for EBAW - February, 2014

Change the Weather History Date:

Wednesday, February 12, 2014

  Actual Average Record
Temperature  
Mean Temperature 44 °F -  
Max Temperature 49 °F 46 °F 57 °F (1998)
Min Temperature 38 °F 35 °F 12 °F (2012)
Degree Days  
Heating Degree Days 22    
Moisture  
Dew Point 35 °F    
Average Humidity 72    
Maximum Humidity 87    
Minimum Humidity 31    
Precipitation  
Precipitation 0.08 in - - ()
Sea Level Pressure  
Sea Level Pressure 29.59 in    
Wind  
Wind Speed 13 mph ()    
Max Wind Speed 25 mph    
Max Gust Speed 37 mph    
Visibility 10.0 miles    
Events Rain    
Averages and records for this station are not official NWS values.
T = Trace of Precipitation, MM = Missing Value Source: Averaged Metar Reports

Daily Weather History Graph

Daily Weather History Graph

Search for Another Location

Airport or City:

Trip Planner

Search our weather history database for the weather conditions in past years. The results will help you decide how hot, cold, wet, or windy it might be!

Date:

Astronomy

Feb. 12, 2014 Rise Set
Actual Time 8:01 AM CET 5:52 PM CET
Civil Twilight 7:26 AM CET 6:26 PM CET
Nautical Twilight 6:47 AM CET 7:06 PM CET
Astronomical Twilight 6:09 AM CET 7:44 PM CET
Moon 3:46 PM CET (2/12) 6:15 AM CET (2/12)
Length of Visible Light 11h 00m
Length of Day
9h 51m
Waxing Gibbous, 94% of the Moon is Illuminated
Feb 12
Waxing Gibbous
Feb 15
Full
Feb 22
Last Quarter
Mar 1
New
Mar 8
First Quarter

Hourly Weather History & Observations

Time (CET) Temp. Windchill Dew Point Humidity Pressure Visibility Wind Dir Wind Speed Gust Speed Precip Events Conditions
12:00 AM 41 °F - 37 °F 81% 29.61 in 22 mi SW 11.2 mph - -  
12:20 AM 41.0 °F 35.2 °F 37.4 °F 87% 29.62 in - SW 9.2 mph - N/A   Clear
12:50 AM 41.0 °F 34.7 °F 37.4 °F 87% 29.62 in - SW 10.4 mph - N/A   Clear
1:00 AM 40 °F - 36 °F 82% 29.63 in 22 mi SW 11.2 mph - -   Clear
1:20 AM 41.0 °F 34.7 °F 35.6 °F 81% 29.62 in - SW 10.4 mph - N/A   Clear
1:50 AM 41.0 °F 34.3 °F 35.6 °F 81% 29.62 in - SW 11.5 mph - N/A   Clear
2:00 AM 40 °F - 36 °F 79% 29.65 in 25 mi SW 11.2 mph - -   Partly Cloudy
2:20 AM 39.2 °F 32.5 °F 35.6 °F 87% 29.65 in - SW 10.4 mph - N/A   Clear
2:50 AM 39.2 °F 33.0 °F 35.6 °F 87% 29.65 in 6.2 mi SW 9.2 mph - N/A   Partly Cloudy
3:00 AM 40 °F - 35 °F 76% 29.67 in 25 mi SW 8.9 mph - -   Scattered Clouds
3:20 AM 39.2 °F 32.5 °F 35.6 °F 87% 29.65 in - SW 10.4 mph - N/A   Clear
3:50 AM 39.2 °F 32.5 °F 35.6 °F 87% 29.68 in 6.2 mi SW 10.4 mph - N/A   Partly Cloudy
4:00 AM 39 °F - 35 °F 80% 29.68 in 22 mi SW 11.2 mph - -   Scattered Clouds
4:20 AM 39.2 °F 32.5 °F 35.6 °F 87% 29.68 in 6.2 mi SSW 10.4 mph - N/A   Mostly Cloudy
4:50 AM 39.2 °F 32.0 °F 35.6 °F 87% 29.68 in - SW 11.5 mph - N/A   Clear
5:00 AM 39 °F - 35 °F 80% 29.70 in 22 mi SW 11.2 mph - -  
5:20 AM 39.2 °F 33.0 °F 33.8 °F 81% 29.71 in 6.2 mi SW 9.2 mph - N/A   Mostly Cloudy
5:50 AM 39.2 °F 33.0 °F 33.8 °F 81% 29.71 in - SW 9.2 mph - N/A   Clear
6:00 AM 38 °F - 35 °F 83% 29.73 in 17 mi SW 8.9 mph - -  
6:20 AM 39.2 °F 32.5 °F 35.6 °F 87% 29.71 in - SSW 10.4 mph - N/A   Clear
6:50 AM 39.2 °F 32.0 °F 35.6 °F 87% 29.71 in 6.2 mi SSW 11.5 mph - N/A   Scattered Clouds
7:00 AM 39 °F - 35 °F 79% 29.73 in 19 mi SSW 11.2 mph - -   Partly Cloudy
7:20 AM 39.2 °F 32.0 °F 33.8 °F 81% 29.71 in 6.2 mi SSW 11.5 mph - N/A   Partly Cloudy
7:50 AM 39.2 °F 32.0 °F 33.8 °F 81% 29.74 in 6.2 mi SSW 11.5 mph - N/A   Partly Cloudy
8:00 AM 38 °F - 35 °F 82% 29.75 in 19 mi SSW 11.2 mph - -   Scattered Clouds
8:20 AM 39.2 °F 31.2 °F 33.8 °F 81% 29.74 in 6.2 mi SW 13.8 mph - N/A   Partly Cloudy
8:50 AM 39.2 °F 32.0 °F 33.8 °F 81% 29.74 in 6.2 mi SSW 11.5 mph - N/A   Partly Cloudy
9:00 AM 39 °F - 35 °F 78% 29.76 in 19 mi SSW 11.2 mph - -   Scattered Clouds
9:20 AM 39.2 °F 31.2 °F 33.8 °F 81% 29.74 in - SSW 13.8 mph - N/A   Clear
9:50 AM 41.0 °F 33.9 °F 33.8 °F 76% 29.74 in - SSW 12.7 mph - N/A   Clear
10:00 AM 40 °F - 35 °F 74% 29.75 in 19 mi SSW 13.4 mph - -   Scattered Clouds
10:20 AM 41.0 °F 33.9 °F 33.8 °F 76% 29.74 in - SSW 12.7 mph - N/A   Clear
10:50 AM 42.8 °F 35.8 °F 33.8 °F 70% 29.71 in - SSW 13.8 mph - N/A   Clear
11:00 AM 42 °F - 34 °F 66% 29.73 in 19 mi SSW 13.4 mph - -   Scattered Clouds
11:20 AM 44.6 °F 38.1 °F 33.8 °F 66% 29.71 in - SSW 13.8 mph - N/A   Clear
11:50 AM 44.6 °F 37.8 °F 33.8 °F 66% 29.68 in - SSW 15.0 mph - N/A   Clear
12:00 PM 45 °F - 34 °F 54% 29.70 in 19 mi SSW 15.7 mph - -   Clear
12:20 PM 46.4 °F 38.7 °F 33.8 °F 62% 29.68 in 6.2 mi SSW 20.7 mph - N/A   Partly Cloudy
12:50 PM 46.4 °F 39.2 °F 33.8 °F 62% 29.65 in 6.2 mi SSW 18.4 mph - N/A   Partly Cloudy
1:00 PM 47 °F - 34 °F 50% 29.67 in 19 mi SSW 17.9 mph - -   Scattered Clouds
1:20 PM 48.2 °F - 33.8 °F 58% 29.62 in 6.2 mi SSW 19.6 mph - N/A   Partly Cloudy
1:50 PM 48.2 °F - 33.8 °F 58% 29.62 in 6.2 mi SSW 19.6 mph - N/A   Partly Cloudy
2:00 PM 48 °F - 33 °F 45% 29.63 in 19 mi SSW 20.1 mph - -   Scattered Clouds
2:20 PM 50.0 °F - 32.0 °F 50% 29.59 in 6.2 mi SSW 21.9 mph 33.4 mph N/A   Partly Cloudy
2:50 PM 50.0 °F - 28.4 °F 43% 29.56 in 6.2 mi SSW 21.9 mph 36.8 mph N/A   Partly Cloudy
3:00 PM 49 °F - 28 °F 31% 29.58 in 19 mi SSW 22.4 mph - -   Scattered Clouds
3:20 PM 48.2 °F - 28.4 °F 46% 29.53 in - South 19.6 mph - N/A   Clear
3:50 PM 48.2 °F - 30.2 °F 50% 29.53 in - South 19.6 mph - N/A   Clear
4:00 PM 48 °F - 30 °F 38% 29.54 in 19 mi South 20.1 mph - -   Partly Cloudy
4:20 PM 48.2 °F - 30.2 °F 50% 29.50 in - South 16.1 mph - N/A   Clear
4:50 PM 48.2 °F - 30.2 °F 50% 29.47 in 6.2 mi South 16.1 mph 27.6 mph N/A   Partly Cloudy
5:00 PM 47 °F - 31 °F 42% 29.50 in 19 mi South 15.7 mph - -   Scattered Clouds
5:20 PM 48.2 °F - 32.0 °F 54% 29.47 in 6.2 mi South 21.9 mph 33.4 mph N/A   Partly Cloudy
5:50 PM 46.4 °F 38.3 °F 32.0 °F 57% 29.44 in 6.2 mi South 23.0 mph - N/A   Scattered Clouds
6:00 PM 47 °F - 33 °F 46% 29.45 in 19 mi South 22.4 mph - -   Overcast
6:20 PM 44.6 °F 36.9 °F 35.6 °F 71% 29.44 in 3.7 mi South 18.4 mph - N/A Rain Rain
6:50 PM 42.8 °F 33.1 °F 37.4 °F 81% 29.44 in 3.7 mi South 25.3 mph - N/A Rain Rain
7:00 PM 43 °F - 37 °F 74% 29.45 in 4 mi South 24.6 mph - - Rain Rain
7:20 PM 42.8 °F 34.3 °F 37.4 °F 81% 29.42 in 5.0 mi South 19.6 mph - N/A Rain Light Rain
7:50 PM 42.8 °F 34.3 °F 39.2 °F 87% 29.42 in 5.0 mi South 19.6 mph 31.1 mph N/A Rain Light Rain
8:00 PM 42 °F - 38 °F 83% 29.43 in 5 mi South 20.1 mph - - Rain Light Rain
8:20 PM 42.8 °F 34.5 °F 37.4 °F 81% 29.42 in 6.2 mi South 18.4 mph 29.9 mph N/A Rain Light Rain
8:50 PM 42.8 °F 34.8 °F 37.4 °F 81% 29.39 in 6.2 mi South 17.3 mph 34.5 mph N/A Rain Light Rain
9:00 PM 43 °F - 38 °F 76% 29.41 in 11 mi South 17.9 mph - - Rain Light Rain
9:20 PM 42.8 °F 34.3 °F 37.4 °F 81% 29.39 in 6.2 mi South 19.6 mph - N/A Rain Light Rain
9:50 PM 44.6 °F 36.1 °F 37.4 °F 76% 29.36 in 6.2 mi South 21.9 mph 34.5 mph N/A   Mostly Cloudy
10:00 PM 44 °F - 38 °F 71% 29.38 in 19 mi South 22.4 mph - - Rain Light Rain
10:20 PM 44.6 °F 36.9 °F 39.2 °F 81% 29.36 in 6.2 mi SSW 18.4 mph - N/A   Mostly Cloudy
10:50 PM 44.6 °F 37.4 °F 39.2 °F 81% 29.36 in 6.2 mi SSW 16.1 mph - N/A   Partly Cloudy
11:00 PM 45 °F - 39 °F 71% 29.37 in 19 mi SSW 15.7 mph - - Rain Light Rain Showers
11:20 PM 44.6 °F 37.4 °F 39.2 °F 81% 29.36 in 6.2 mi SSW 16.1 mph 27.6 mph N/A Rain Light Rain Showers
11:50 PM 44.6 °F 37.2 °F 39.2 °F 81% 29.39 in 6.2 mi SW 17.3 mph - N/A   Scattered Clouds